Location: St Paul
(33.4390°N, 83.7350°W)
Time: 08:11:23
(UTC-05:00)

USA 234 - Pass Details

Date: 06 October 2017
Orbit: 1101 x 1107 km, 123.0° (Epoch: 25 November)

Event Time Altitude Azimuth Distance (km) Brightness Sun altitude
Exits shadow 22:28:34 37° 274° (W) 1,643 4.4 -40.9°
Drops below altitude 10° 22:32:54 10° 305° (NW) 2,960 6.1 -41.7°
Sets 22:35:31 0° 311° (NW) 3,919 6.9 -42.2°
